User: anonymous   Login
Location: Township of South Roscoe
(37.9570°N, 100.1180°W)
Time: 09:10:41
(UTC+00:00)
Language:

SJ-12 - Orbit

View from above orbital plane
View from above orbital plane
View from above satellite
View from above satellite

Ground track
Ground track

The orbit data is extracted from the following two-line orbital elements,

1 36596U 10027A   22024.92987975  .00000696  00000-0  65141-4 0  9997
2 36596  97.7068  14.5189 0012496 144.8850 215.3198 14.97212554633526
Epoch (UTC): 24 January 2022 22:19:01
Eccentricity: 0.0012496
inclination: 97.7068°
perigee height: 567 km
apogee height: 584 km
right ascension of ascending node: 14.5189°
argument of perigee: 144.8850°
revolutions per day: 14.97212554
mean anomaly at epoch: 215.3198°
orbit number at epoch: 63352

The dashed part of the orbit path shows where the satellite is in the earth's shadow,  

DLR